TimeCST,TemperatureF,Dew PointF,Humidity,Sea Level PressureIn,VisibilityMPH,Wind Direction,Wind SpeedMPH,Gust SpeedMPH,PrecipitationIn,Events,Conditions,WindDirDegrees,DateUTC
12:15 AM,-0.4,-4.0,85,30.32,-9999.0,North,-9999.0,-,N/A,,Unknown,0,2014-02-03 06:15:00
12:35 AM,-4.0,-7.6,85,30.32,-9999.0,North,-9999.0,-,N/A,,Unknown,0,2014-02-03 06:35:00
12:55 AM,-2.2,-7.6,78,30.32,-9999.0,North,-9999.0,-,N/A,,Clear,0,2014-02-03 06:55:00
1:15 AM,-4.0,-9.4,78,30.32,-9999.0,North,-9999.0,-,N/A,,Clear,0,2014-02-03 07:15:00
1:35 AM,-7.6,-11.2,84,30.31,-9999.0,North,-9999.0,-,N/A,,Unknown,0,2014-02-03 07:35:00
1:55 AM,-5.8,-9.4,84,30.32,-9999.0,North,-9999.0,-,N/A,,Unknown,0,2014-02-03 07:55:00
2:15 AM,-7.6,-11.2,84,30.32,-9999.0,North,-9999.0,-,N/A,,Unknown,0,2014-02-03 08:15:00
2:35 AM,-7.6,-9999,N/A,30.33,-9999.0,North,-9999.0,-,N/A,,Unknown,0,2014-02-03 08:35:00
2:55 AM,-4.0,-9.4,78,30.34,-9999.0,North,-9999.0,-,N/A,,Unknown,0,2014-02-03 08:55:00
3:15 AM,-7.6,-13.0,77,30.34,-9999.0,North,-9999.0,-,N/A,,Clear,0,2014-02-03 09:15:00
3:35 AM,-7.6,-11.2,84,30.34,-9999.0,North,-9999.0,-,N/A,,Unknown,0,2014-02-03 09:35:00
3:55 AM,-7.6,-11.2,84,30.33,-9999.0,North,-9999.0,-,N/A,,Unknown,0,2014-02-03 09:55:00
4:15 AM,-4.0,-7.6,85,30.32,-9999.0,North,-9999.0,-,N/A,,Unknown,0,2014-02-03 10:15:00
4:35 AM,-7.6,-11.2,84,30.32,-9999.0,North,-9999.0,-,N/A,,Unknown,0,2014-02-03 10:35:00
4:55 AM,-7.6,-13.0,77,30.32,-9999.0,North,-9999.0,-,N/A,,Unknown,0,2014-02-03 10:55:00
5:15 AM,-7.6,-13.0,77,30.32,-9999.0,North,-9999.0,-,N/A,,Clear,0,2014-02-03 11:15:00
5:35 AM,-9.4,-13.0,84,30.32,-9999.0,North,-9999.0,-,N/A,,Unknown,0,2014-02-03 11:35:00
5:55 AM,-7.6,-11.2,84,30.32,-9999.0,North,-9999.0,-,N/A,,Unknown,0,2014-02-03 11:55:00
6:15 AM,-5.8,-9.4,84,30.31,-9999.0,North,-9999.0,-,N/A,,Unknown,0,2014-02-03 12:15:00
6:35 AM,-4.0,-9.4,78,30.32,-9999.0,North,-9999.0,-,N/A,,Clear,0,2014-02-03 12:35:00
6:55 AM,-4.0,-9.4,78,30.32,-9999.0,North,-9999.0,-,N/A,,Clear,0,2014-02-03 12:55:00
7:15 AM,-4.0,-9.4,78,30.32,-9999.0,North,-9999.0,-,N/A,,Clear,0,2014-02-03 13:15:00
7:35 AM,-4.0,-9.4,78,30.31,-9999.0,North,-9999.0,-,N/A,,Clear,0,2014-02-03 13:35:00
7:55 AM,-2.2,-7.6,78,30.31,-9999.0,North,-9999.0,-,N/A,,Clear,0,2014-02-03 13:55:00
8:15 AM,-2.2,-5.8,85,30.32,-9999.0,North,-9999.0,-,N/A,,Unknown,0,2014-02-03 14:15:00
8:35 AM,-0.4,-4.0,85,30.34,-9999.0,North,-9999.0,-,N/A,,Unknown,0,2014-02-03 14:35:00
8:55 AM,1.4,-2.2,85,30.35,-9999.0,North,-9999.0,-,N/A,,Unknown,0,2014-02-03 14:55:00
9:15 AM,5.0,-0.4,78,30.36,-9999.0,North,-9999.0,-,N/A,,Clear,0,2014-02-03 15:15:00
9:35 AM,6.8,3.2,85,30.35,-9999.0,North,-9999.0,-,N/A,,Unknown,0,2014-02-03 15:35:00
9:55 AM,10.4,5.0,79,30.35,-9999.0,North,-9999.0,-,N/A,,Unknown,0,2014-02-03 15:55:00
10:15 AM,10.4,3.2,73,30.35,-9999.0,North,-9999.0,-,N/A,,Clear,0,2014-02-03 16:15:00
10:35 AM,14.0,3.2,62,30.36,-9999.0,North,-9999.0,-,N/A,,Clear,0,2014-02-03 16:35:00
10:55 AM,15.8,3.2,58,30.35,-9999.0,North,-9999.0,-,N/A,,Clear,0,2014-02-03 16:55:00
11:15 AM,15.8,5.0,62,30.34,-9999.0,North,-9999.0,-,N/A,,Clear,0,2014-02-03 17:15:00
11:35 AM,17.6,5.0,58,30.34,-9999.0,North,-9999.0,-,N/A,,Clear,0,2014-02-03 17:35:00
11:55 AM,17.6,5.0,58,30.33,-9999.0,North,-9999.0,-,N/A,,Clear,0,2014-02-03 17:55:00
12:15 PM,19.4,5.0,54,30.32,-9999.0,North,-9999.0,-,N/A,,Clear,0,2014-02-03 18:15:00
12:35 PM,21.2,6.8,54,30.31,-9999.0,North,-9999.0,-,N/A,,Clear,0,2014-02-03 18:35:00
12:55 PM,23.0,6.8,50,30.30,-9999.0,North,-9999.0,-,N/A,,Clear,0,2014-02-03 18:55:00
1:15 PM,23.0,6.8,50,30.29,-9999.0,North,-9999.0,-,N/A,,Clear,0,2014-02-03 19:15:00
1:35 PM,23.0,6.8,50,30.28,-9999.0,North,-9999.0,-,N/A,,Clear,0,2014-02-03 19:35:00
1:55 PM,23.0,6.8,50,30.28,-9999.0,North,-9999.0,-,N/A,,Clear,0,2014-02-03 19:55:00
2:15 PM,24.8,6.8,46,30.29,-9999.0,North,-9999.0,-,N/A,,Clear,0,2014-02-03 20:15:00
2:35 PM,24.8,8.6,50,30.30,-9999.0,North,-9999.0,-,N/A,,Clear,0,2014-02-03 20:35:00
2:55 PM,24.8,8.6,50,30.30,-9999.0,North,-9999.0,-,N/A,,Clear,0,2014-02-03 20:55:00
3:15 PM,24.8,8.6,50,30.30,-9999.0,North,-9999.0,-,N/A,,Clear,0,2014-02-03 21:15:00
3:35 PM,24.8,8.6,50,30.29,-9999.0,North,-9999.0,-,N/A,,Clear,0,2014-02-03 21:35:00
3:55 PM,23.0,8.6,54,30.28,-9999.0,North,-9999.0,-,N/A,,Clear,0,2014-02-03 21:55:00
4:15 PM,23.0,10.4,59,30.28,-9999.0,North,-9999.0,-,N/A,,Clear,0,2014-02-03 22:15:00
4:35 PM,23.0,8.6,54,30.28,-9999.0,North,-9999.0,-,N/A,,Clear,0,2014-02-03 22:35:00
4:55 PM,21.2,8.6,58,30.28,-9999.0,North,-9999.0,-,N/A,,Clear,0,2014-02-03 22:55:00
5:15 PM,21.2,6.8,54,30.28,-9999.0,North,-9999.0,-,N/A,,Clear,0,2014-02-03 23:15:00
5:35 PM,23.0,6.8,50,30.28,-9999.0,North,-9999.0,-,N/A,,Clear,0,2014-02-03 23:35:00
5:55 PM,19.4,6.8,58,30.28,-9999.0,North,-9999.0,-,N/A,,Clear,0,2014-02-03 23:55:00
6:15 PM,19.4,6.8,58,30.28,-9999.0,North,-9999.0,-,N/A,,Clear,0,2014-02-04 00:15:00
6:35 PM,17.6,6.8,63,30.28,-9999.0,North,-9999.0,-,N/A,,Clear,0,2014-02-04 00:35:00
6:55 PM,15.8,6.8,68,30.28,-9999.0,North,-9999.0,-,N/A,,Clear,0,2014-02-04 00:55:00
7:15 PM,15.8,5.0,62,30.28,-9999.0,North,-9999.0,-,N/A,,Clear,0,2014-02-04 01:15:00
7:35 PM,15.8,5.0,62,30.28,-9999.0,North,-9999.0,-,N/A,,Clear,0,2014-02-04 01:35:00
7:55 PM,15.8,5.0,62,30.29,-9999.0,North,-9999.0,-,N/A,,Partly Cloudy,0,2014-02-04 01:55:00
8:15 PM,15.8,5.0,62,30.28,-9999.0,North,-9999.0,-,N/A,,Scattered Clouds,0,2014-02-04 02:15:00
8:35 PM,15.8,6.8,68,30.28,-9999.0,North,-9999.0,-,N/A,,Mostly Cloudy,0,2014-02-04 02:35:00
8:55 PM,15.8,6.8,68,30.29,-9999.0,North,-9999.0,-,N/A,,Overcast,0,2014-02-04 02:55:00
9:15 PM,17.6,6.8,63,30.29,-9999.0,North,-9999.0,-,N/A,,Overcast,0,2014-02-04 03:15:00
9:35 PM,17.6,6.8,63,30.29,-9999.0,North,-9999.0,-,N/A,,Overcast,0,2014-02-04 03:35:00
9:55 PM,17.6,6.8,63,30.30,-9999.0,North,-9999.0,-,N/A,,Overcast,0,2014-02-04 03:55:00
10:15 PM,17.6,6.8,63,30.30,-9999.0,North,-9999.0,-,N/A,,Overcast,0,2014-02-04 04:15:00
10:35 PM,17.6,6.8,63,30.30,-9999.0,North,-9999.0,-,N/A,,Overcast,0,2014-02-04 04:35:00
10:55 PM,17.6,6.8,63,30.31,-9999.0,North,-9999.0,-,N/A,,Overcast,0,2014-02-04 04:55:00
11:15 PM,17.6,6.8,63,30.31,-9999.0,North,-9999.0,-,N/A,,Overcast,0,2014-02-04 05:15:00
11:35 PM,17.6,8.6,68,30.32,-9999.0,North,-9999.0,-,N/A,,Overcast,0,2014-02-04 05:35:00
11:55 PM,17.6,8.6,68,30.32,-9999.0,North,-9999.0,-,N/A,,Overcast,0,2014-02-04 05:55:00